UAL313 KIAH-CYYZ

Flight info

Callsign UAL313
Flight time N/A
Altitude 37000
Route INDIE8 TPAKK LIT J131 PXV ROD QWERI NUBER6
Aircraft A319/M-SDE3FGHIRWY/LB1

Departure

Time 2026-04-30 22:40
Airport George Bush Intercontinental Airport (KIAH)

Arrival

Time N/A
Airport Toronto Pearson International Airport (CYYZ)
Time Latitude Longitude Altitude Speed Heading
2026-04-30 22:08 29.98817 -95.34332 100 ft 0 kts 195°
2026-04-30 22:32 29.98840 -95.34324 100 ft 2 kts 195°
2026-04-30 22:32 29.98864 -95.34316 100 ft 1 kts 195°
2026-04-30 22:33 29.98895 -95.34338 100 ft 0 kts 94°
2026-04-30 22:33 29.98895 -95.34347 100 ft 0 kts 89°
2026-04-30 22:36 29.98912 -95.34346 100 ft 5 kts
2026-04-30 22:36 29.98981 -95.34342 100 ft 14 kts
2026-04-30 22:37 29.99091 -95.34798 100 ft 27 kts 270°
2026-04-30 22:37 29.99090 -95.34999 97 ft 21 kts 269°
2026-04-30 22:37 29.99087 -95.35319 99 ft 18 kts 271°
2026-04-30 22:38 29.99206 -95.35488 100 ft 16 kts
2026-04-30 22:38 29.99345 -95.35430 100 ft 4 kts 91°
2026-04-30 22:39 29.99345 -95.35329 100 ft 38 kts 90°
2026-04-30 22:39 29.99365 -95.32362 558 ft 165 kts 86°
2026-04-30 22:40 30.01295 -95.29923 2146 ft 164 kts 14°
2026-04-30 22:41 30.05231 -95.29028 3120 ft 217 kts 12°
2026-04-30 22:41 30.08447 -95.28272 3898 ft 253 kts 14°
2026-04-30 22:42 30.15773 -95.26123 6172 ft 282 kts 14°
2026-04-30 22:43 30.19605 -95.25008 7657 ft 287 kts 14°
2026-04-30 22:43 30.23504 -95.23878 8980 ft 294 kts 13°
2026-04-30 22:44 30.27494 -95.22723 10186 ft 301 kts 13°
2026-04-30 22:45 30.36128 -95.19534 11311 ft 352 kts 18°
2026-04-30 22:45 30.40908 -95.17667 12104 ft 368 kts 17°
2026-04-30 22:46 30.45771 -95.15525 13070 ft 378 kts 23°
2026-04-30 22:47 30.55278 -95.09707 15016 ft 393 kts 25°
2026-04-30 22:47 30.60123 -95.06691 15992 ft 397 kts 25°
2026-04-30 22:48 30.64987 -95.03570 16884 ft 402 kts 24°
2026-04-30 22:49 30.72399 -94.98792 18149 ft 408 kts 22°
2026-04-30 22:49 30.79889 -94.93968 19349 ft 415 kts 21°
2026-04-30 22:50 30.90108 -94.87383 20977 ft 425 kts 22°
2026-04-30 22:51 30.95324 -94.84006 21768 ft 430 kts 22°
2026-04-30 22:51 31.00589 -94.80592 22507 ft 435 kts 22°
2026-04-30 22:52 31.03213 -94.78888 22861 ft 437 kts 22°
2026-04-30 22:52 31.08555 -94.75417 23556 ft 442 kts 23°
2026-04-30 22:53 31.13980 -94.71887 24259 ft 446 kts 23°
2026-04-30 22:53 31.19441 -94.68333 24946 ft 451 kts 22°
2026-04-30 22:53 31.22165 -94.66560 25280 ft 453 kts 22°
2026-04-30 22:54 31.27717 -94.62940 25933 ft 458 kts 22°
2026-04-30 22:55 31.36106 -94.57459 26875 ft 466 kts 22°
2026-04-30 22:55 31.41802 -94.53729 27519 ft 471 kts 22°
2026-04-30 22:56 31.47523 -94.49978 28146 ft 475 kts 21°
2026-04-30 22:56 31.56175 -94.44044 29130 ft 484 kts 23°
2026-04-30 22:57 31.61965 -94.39986 29736 ft 486 kts 22°
2026-04-30 22:57 31.67764 -94.35928 30441 ft 486 kts 22°
2026-04-30 22:58 31.73578 -94.31863 31179 ft 485 kts 22°
2026-04-30 22:59 31.82249 -94.25788 32387 ft 483 kts 22°
2026-04-30 22:59 31.90834 -94.19762 33667 ft 477 kts 21°